Weather in Verkhnyaya Zaimka

Russia / Republic of Buryatia     55°50′52″N   110°08′35″E
temp.,
°C
wind,
m/s
gust,
m/s
humid.,
%
clouds,
%
prec.,
mm/h
press.,
hPa
HPBL,
m
7 may, fri
fri723:00−3nne1182100 0.1 101153
02:00−4e1186100 0.1 101024
05:00−4e2282100 0.1 101023
08:00+1ne346165 0.1 1010695
11:00+5nne334521 0.0 10101224
14:00+7nne334012 0.0 10101647
17:00+6nne234340 0.1 10111540
20:00+2nne126134 0.1 101386
8 may, sat
sat823:00−1ese22704 0.0 101527
02:00−2ese22711 0.0 101523
05:00−3ese22690 0.0 101519
08:00+2n21551 0.0 1013504
11:00+6nnw32437 0.0 10111381
14:00+8nw323617 0.0 10091820
17:00+6w323818 0.0 10091405
20:00+2nw115539 0.1 101131
9 may, sun
sun923:000se11624 0.0 101210
02:00−2sse11675 0.0 101210
05:00−2sse116860 0.0 101210
08:00+2nw215356 0.0 1011438
11:00+5wnw324976 0.0 10091174
14:00+5wnw326590 0.3 1010841
17:00+4wnw227371 0.4 1010569
20:00+1nnw118621 0.5 1012100
10 may, mon
mon1023:000ese118759 0.0 101110
02:000se1179100 0.1 101112
05:000se227627 0.0 101117
08:00+6nne125393 0.0 1009572
11:00+8n2242100 0.1 10081565
14:00+10nw124099 0.7 10081668
17:00+8ene0153100 0.9 1010883
20:00+6nne126587 1.3 101065
11 may, tue
tue1123:00+4ese226537 0.1 101120
02:00+3e326055 0.1 101124
05:00+3ese325835 0.0 101128
08:00+8ne224325 0.0 1009552
11:00+11nnw223372 0.1 10082056
14:00+10wnw223789 0.5 10091444
17:00+8wnw334451 0.1 1010942
20:00+3nnw1269100 0.2 1013114